This demonstration page uses our WeatherBlox Daily Observations layout. Learn more.

Left ArrowRight Arrow

Hourly Observations for March 10, 2018

Temp ( °F °C ) Dew Point ( °F °C ) Humidity (%) Winds ( mph kmh ) Pressure ( in mb ) Visibility ( mi km ) Precip ( " mm )
12:59 am 00:59 Mostly Cloudy 39 3.9 23 -5 53 53 NNE 8 13 30.08 1019 10 16 0.00 0.00
1:59 am 01:59 Mostly Cloudy 36 2.2 24 -4.4 62 62 Calm 30.07 1018 10 16 0.00 0.00
2:59 am 02:59 Cloudy 39 3.9 24 -4.4 55 55 ENE 5 7 30.06 1018 10 16 0.00 0.00
3:59 am 03:59 Cloudy 37 2.8 26 -3.3 65 65 Calm 30.06 1018 10 16 0.00 0.00
4:59 am 04:59 Mostly Cloudy 37 2.8 26 -3.3 65 65 S 3 6 30.08 1019 10 16 0.00 0.00
5:59 am 05:59 Cloudy 38 3.3 26 -3.3 62 62 E 3 6 30.08 1019 10 16 0.00 0.00
6:59 am 06:59 Cloudy 39 3.9 26 -3.3 60 60 SE 3 6 30.09 1019 10 16 0.00 0.00
7:59 am 07:59 Cloudy 41 5 26 -3.3 55 55 SE 6 9 30.11 1020 10 16 0.00 0.00
8:59 am 08:59 Cloudy 42 5.6 27 -2.8 55 55 S 5 7 30.11 1020 10 16 0.00 0.00
9:59 am 09:59 Cloudy 43 6.1 27 -2.8 53 53 SSE 7 11 30.10 1019 10 16 0.00 0.00
10:59 am 10:59 Cloudy with Light Rain 43 6.1 29 -1.7 58 58 SE 5 7 30.08 1019 8 13 0.00 0.03
11:59 am 11:59 Cloudy 45 7.2 30 -1.1 56 56 SSE 7 11 30.05 1018 10 16 0.00 0.03
12:59 pm 12:59 Cloudy 47 8.3 31 -0.6 54 54 VRB 5 7 30.03 1017 10 16 0.00 0.00
1:59 pm 13:59 Cloudy 47 8.3 33 0.6 59 59 VRB 3 6 30.00 1016 10 16 0.00 0.00
2:59 pm 14:59 Cloudy 47 8.3 35 1.7 63 63 W 3 6 29.99 1016 10 16 0.00 0.00
3:59 pm 15:59 Cloudy 48 8.9 35 1.7 61 61 Calm 30.00 1016 10 16 0.00 0.00
4:59 pm 16:59 Cloudy 46 7.8 34 1.1 63 63 N 5 7 30.01 1016 10 16 0.00 0.00
5:59 pm 17:59 Cloudy 46 7.8 36 2.2 68 68 ENE 3 6 30.03 1017 10 16 0.00 0.00
6:59 pm 18:59 Cloudy 46 7.8 37 2.8 71 71 ENE 3 6 30.05 1018 10 16 0.00 0.00
7:59 pm 19:59 Mostly Cloudy 44 6.7 38 3.3 79 79 ENE 5 7 30.04 1017 10 16 0.00 0.00
8:59 pm 20:59 Cloudy 45 7.2 39 3.9 80 80 E 5 7 30.04 1017 9 14 0.00 0.00
9:59 pm 21:59 Partly Cloudy 42 5.6 37 2.8 82 82 Calm 30.06 1018 8 13 0.00 0.00
10:59 pm 22:59 Partly Cloudy 41 5 38 3.3 89 89 E 3 6 30.06 1018 7 11 0.00 0.00
11:59 pm 23:59 Partly Cloudy 41 5 37 2.8 86 86 ESE 3 6 30.07 1018 7 11 0.00 0.00

Powered by AerisWeather